Regional Weather Roundup
Issued by NWS Midland/Odessa, TX

Skip options and go directly to product.
Home | Oldest Version | Previous Version | Current Version | All | Text Only | Save Text | Print | Product List | Glossary On

Skip product version selection by date and time.   
712
ASUS44 KMAF 051110
RWRMAF
MIDLAND AREA WEATHER ROUNDUP
NATIONAL WEATHER SERVICE MIDLAND TX
600 AM CDT TUE MAY 05 2015

...IN SOUTHWEST TEXAS AND SOUTHEAST NEW MEXICO...

CITY           SKY/WX    TMP DP  RH WIND       PRES   REMARKS
ALPINE         CLEAR     57  55  91 CALM      29.99R
ANDREWS        CLOUDY    62  62 100 S16G23    29.84S
ARTESIA        PTCLDY    57  57 100 NW10      29.89R
BIG SPRING     CLOUDY    65  60  83 SE14      29.91R
CARLSBAD       PTCLDY    58  56  93 NW6       29.85R
DRYDEN           N/A     68  63  84 SE15G24   29.83R
FORT STOCKTON  MOCLDY    65  60  84 S13       29.84S
GUAD PASS      FOG       53  53 100 W7        29.95R VSB 1/4
HOBBS          TSTM      55  55 100 N9        29.87F
MARFA          CLEAR     48  46  93 E5        29.97R
MIDLAND AIRPK  CLOUDY    66  61  83 SE16      29.85F
MIDLAND INTL   MOCLDY    65  61  87 S22       29.85F
ODESSA         LGT RAIN  64  60  87 S16G28    29.84F
PECOS          PTCLDY    60  57  90 E3        29.83R
PRESIDIO       FAIR      65  56  70 CALM      29.86R
SEMINOLE       HVY RAIN  56  55  97 NW3G9     29.91R VSB 3/4
SNYDER         LGT RAIN  62  60  93 E10       29.90S
WINK           MOCLDY    67  60  78 S15       29.80R
$$
...OTHER STATIONS IN TEXAS...

CITY           SKY/WX    TMP DP  RH WIND       PRES   REMARKS
ABILENE        CLOUDY    66  59  78 SE16      29.93R
AMARILLO       CLOUDY    55  55 100 NE9       29.89F
AUSTIN         CLOUDY    65  64  97 E3        29.98R
BROWNSVILLE    CLEAR     74  70  87 SE13      29.89F
CORPUS CHRISTI MOCLDY    74  69  85 SE16      29.93S
DALLAS FTW     MOCLDY    61  57  87 SE8       30.00S
DEL RIO        CLOUDY    71  64  78 SE14G22   29.85R
EL PASO        PTCLDY    58  53  84 N7        29.91R
HOUSTON INT    PTCLDY    67  66  97 CALM      30.01R
LUBBOCK        LGT RAIN  57  57 100 SE8       29.89R
SAN ANGELO     CLOUDY    69  57  65 SE17G29   29.88S
SAN ANTONIO    CLOUDY    70  66  87 SE13      29.95F
WACO           CLOUDY    64  60  87 SE10      29.99F
WICHITA FALLS  NOT AVBL
$$
...OTHER LOCATIONS IN NEW MEXICO...

CITY           SKY/WX    TMP DP  RH WIND       PRES   REMARKS
ALAMAGORDO     PTCLDY    52  52 100 N5        29.91S
ALBUQUERQUE    CLOUDY    52  48  86 S7        29.95R
CANNON AFB     LGT RAIN  53  53 100 S6        29.94R
CLOVIS         CLOUDY    54  52  94 S7        29.94R
HOLLOMAN AFB   PTCLDY    53  53 100 N5        29.89R
ROSWELL        MOCLDY    56  54  93 NW8       29.88R
RUIDOSO        PTCLDY    45  41  87 W9        30.00S WCI  40
SANTA FE       MOCLDY    46  43  89 CALM      29.97R
TRUTH OR CONSE CLEAR     51  40  65 NW7       29.93S
TUCUMCARI      CLOUDY    56  53  90 CALM      29.91S
$$

USA.gov is the U.S. government's official web portal to all federal, state and local government web resources and services.